CZ-6A DEB, 61089

Orbit data source: Space-Track

CZ-6A DEB, 61089 is space debris in LEO originally from a launch on Tue, 06 Aug 2024 UTC launched from the Taiyaun Space Center, China (TSC). Debris objects in space refer to the collection of defunct objects orbiting the Earth. Examples of debris include non-operational satellites, rocket bodies, and fragments generated from explosions, collisions, or faulty payload assembly.

Loading next visibility...
Identifier
61089, 2024-140NF
Orbit
LEO
Country
Flag of CNCN / PRC
Related business
Manufacturer
SAST
Mission
Spacecraft
Bus & Motor
Unknown
Mass
Unknown
Launch date (UTC)
2024-08-06 (2 years ago)
Launch vehicle
Unknown
Launch site
Taiyaun Space Center, China (TSC)
Object type
Payload
Rocket body
Debris
Shape & HBR
Unknown shape, 0.1 m
Radar Cross Section
Medium (>0.1 m² and <1 m²)

Expand to show TLE details & history
Last TLE update: 13 hours ago

TLE from 13 hours ago
0 CZ-6A DEB
1 61089U 24140NF  26171.28966372  .00000659  00000-0  32335-3 0  9994
2 61089  89.0640 279.9150 0067241 188.3016 171.7065 14.15498007 93618
Epoch: 2026-06-20T06:57Z
TLE epoch observation values (Epoch: 2026-06-20T06:57:06.945Z)
Latitude
-0.00006°
Longitude
-92.87036°
Altitude
891.714 km
Speed
7.382 km/s
True Right ascension
18h 39m 39s
True Declination
0° 00' 00"
Sunlit
Object was in full shadow at epoch
Visualization orbit readout
Latitude
Unknown
Longitude
Unknown
Altitude
Unknown
Speed
Unknown
Apparent Right ascension
Unknown
Apparent Declination
Unknown
Sunlit
N/A
Visualization observer readout
Local Sidereal Time
07:15:24
Azimuth
Unknown
Elevation
Unknown
Doppler factor
Unknown
Orbital elements
Apogee altitude
886.095 km
Perigee altitude
789.056 km
Semi-major axis
7,215.713 km
Eccentricity
0.00672
Inclination
89.064°
RAAN
279.915°
Arg. of periapsis
188.3016°
True anomaly
171.81673°
Mean anomaly
171.7065°
Eccentric anomaly
171.7617°
Mean motion
3.54099 °/min
Orbital period
101.67 mins
BSTAR
0.00032335
Loading maneuver chart data...
Computing Atmospheric mass density...
Loading historical data...
Loading historical data...
Loading historical data...
Loading historical data...
Loading historical data...
Loading historical data...
Loading historical data...

Documentation

Showing up to 5 results
|